Regional Weather Roundup
Issued by NWS

Home | Current Version | Previous Version | Text Only | Print | Product List | Glossary Off
Versions: 1 2 3 4 5 6 7 8 9 10 11 12 13 14 15 16 17 18 19 20 21 22 23 24 25 26 27 28 29 30 31 32 33 34 35 36 37 38 39 40 41 42 43 44 45 46 47 48 49 50

855
ASUS43 KBIS 281102
RWRND

NORTH DAKOTA REGIONAL WEATHER ROUNDUP
NATIONAL WEATHER SERVICE BISMARCK ND
600 AM CDT FRI JUL 28 2017

NOTE: "FAIR" INDICATES FEW OR NO CLOUDS BELOW 12,000 FEET WITH NO
SIGNIFICANT WEATHER AND/OR OBSTRUCTIONS TO VISIBILITY.


NDZ001>003-009>011-017-281200-
NORTHWEST NORTH DAKOTA

CITY           SKY/WX    TMP DP  RH WIND       PRES   REMARKS
WILLISTON      CLEAR     59  57  93 N3        30.00R
MINOT          PTCLDY    65  58  78 E5        30.03R
MINOT AFB      PTCLDY    62  58  86 S7        30.01S
$$

NDZ018>021-031>035-040>046-281200-
SOUTHWEST NORTH DAKOTA

CITY           SKY/WX    TMP DP  RH WIND       PRES   REMARKS
BISMARCK       CLOUDY    67  60  78 NE6       30.05S
DICKINSON      CLOUDY    64  61  90 E7        30.02R
GARRISON         N/A     63  60  90 CALM      30.04R
HETTINGER ARPT CLOUDY    65  57  75 SE7       30.05R
$$

NDZ004>008-012>016-024-026-027-054-281200-
NORTHEAST NORTH DAKOTA

CITY           SKY/WX    TMP DP  RH WIND       PRES   REMARKS
GRAND FORKS    PTCLDY    59  58  96 SW3       30.07S
GRND FRKS AFB  PTCLDY    56  55  98 CALM      30.08R
DEVILS LAKE    CLEAR     67  59  75 S8        30.10R
$$

NDZ022-023-025-028>030-036>039-047>053-281200-
SOUTHEAST NORTH DAKOTA

CITY           SKY/WX    TMP DP  RH WIND       PRES   REMARKS
FARGO          CLEAR     60  58  92 CALM      30.08R
JAMESTOWN      CLOUDY    60  56  86 CALM      30.09R
$$





USA.gov is the U.S. government's official web portal to all federal, state and local government web resources and services.